[[{"header":{"parameterUnit":"m.s-1","parameterCategory":1,"la1":30.2991,"la2":30.254,"lo1":-89.0895,"lo2":-89.0444,"dy":0.0017,"dx":0.0017,"nx":28,"ny":28,"refTime":"2024-05-18T21:00:00:Z","depth":0,"parameterNumber":2,"parameterNumberName":"U-component_of_WINDS"},"data":[0,0,0,0,0,0,0,0,0,0,0,0,0,0,0,0,0,0,0,0,0,0,0,0,0,0,0,0,0,0,0,0,0,0,0,0,0,0,0,0,0,0,0,0,0,0,0,0,0,0,0,0,0,0,0,0,0,0,-0.7107,-0.7106,0,-0.6993,-0.6991,-0.699,-0.6918,-0.6918,-0.6918,-0.6917,-0.6799,-0.6796,-0.6793,0,0,0,0,0,0,0,0,0,0,0,0,0,-0.7265,-0.7263,-0.7107,-0.7106,-0.7104,-0.6993,-0.6991,-0.699,-0.6918,-0.6918,-0.6917,-0.6917,-0.6799,-0.6796,-0.6793,0,0,0,0,0,0,0,0,0,0,0,0,0,-0.7178,-0.7262,-0.7108,-0.7055,-0.705,-0.6993,-0.6991,-0.6989,-0.6919,-0.6918,-0.6917,-0.6917,-0.6801,-0.6796,-0.6792,-0.6778,0,0,-0.678,-0.6778,0,0,0,0,0,0,0,0,-0.7183,-0.7173,-0.7065,-0.7059,-0.7052,-0.6969,-0.7003,-0.6918,-0.6919,-0.6968,-0.6917,-0.6917,-0.6856,-0.6847,-0.6827,-0.6773,-0.6768,-0.6779,-0.6777,-0.6775,-0.6774,0,0,0,0,0,0,0,-0.719,-0.7177,-0.7062,-0.7063,-0.7056,-0.7038,-0.7025,-0.6987,-0.6917,-0.6964,-0.6958,-0.6946,-0.6852,-0.6831,-0.6823,-0.6766,-0.6779,-0.6776,-0.6773,-0.6771,-0.6696,-0.6697,0,0,0,0,0,0,-0.7204,-0.7183,-0.7065,-0.7058,-0.7118,-0.7036,-0.7021,-0.6996,-0.6917,-0.6904,-0.6947,-0.6943,-0.6838,-0.6828,-0.6819,-0.6798,-0.6775,-0.6771,-0.6769,-0.6696,-0.6697,-0.6697,0,0,0,0,0,0,-0.7208,-0.7194,-0.707,-0.7119,-0.7102,-0.7034,-0.7006,-0.6995,-0.6973,-0.6904,-0.6891,-0.6938,-0.6837,-0.6825,-0.6789,-0.6793,-0.6769,-0.6765,-0.6695,-0.6696,-0.6697,-0.6755,0,0,0,0,0,0,-0.7212,-0.7196,-0.7189,-0.7119,-0.71,-0.7042,-0.7007,-0.6993,-0.6966,-0.696,-0.6892,-0.688,-0.6836,-0.6796,-0.6785,-0.6787,-0.6762,-0.6695,-0.6696,-0.6697,-0.6753,-0.6758,-0.6763,0,0,0,0,0,-0.7218,-0.721,-0.7189,-0.7176,-0.709,-0.7043,-0.7031,-0.6981,-0.6967,-0.696,-0.6916,-0.6882,-0.6795,-0.6793,-0.678,-0.678,-0.6694,-0.6695,-0.6697,-0.6751,-0.6757,-0.6763,0,0,0,0,0,0,-0.7281,-0.7199,-0.7176,-0.7144,-0.7101,-0.7031,-0.702,-0.6989,-0.6949,-0.6945,-0.6885,-0.687,-0.6841,-0.6807,-0.6807,-0.6764,-0.6741,-0.6739,-0.6786,-0.6792,-0.6797,-0.6805,-0.6758,0,0,0,0,0,-0.7291,-0.7259,-0.719,-0.7169,-0.7149,-0.7089,-0.7066,-0.7032,-0.6984,-0.6965,-0.6918,-0.6873,-0.6836,-0.6812,-0.6773,-0.6748,-0.6733,-0.6742,-0.6747,-0.6752,-0.6751,-0.6737,-0.674,-0.6701,-0.6701,-0.6701,0,0,-0.7311,-0.7263,-0.7247,-0.718,-0.7143,-0.7112,-0.7073,-0.7042,-0.7018,-0.696,-0.6924,-0.6889,-0.6834,-0.6805,-0.6789,-0.6776,-0.6759,-0.6753,-0.6757,-0.6754,-0.6738,-0.6742,-0.6745,-0.6702,-0.6702,-0.6702,0,0,-0.7333,-0.7293,-0.7272,-0.7235,-0.7179,-0.714,-0.7135,-0.707,-0.7044,-0.7008,-0.6964,-0.6935,-0.6872,-0.6835,-0.6809,-0.682,-0.6788,-0.6809,-0.6834,-0.6821,-0.6824,-0.6827,-0.6831,-0.6833,-0.6809,-0.6809,-0.6809,0,-0.7365,-0.7316,-0.7265,-0.7236,-0.7208,-0.7156,-0.7135,-0.7102,-0.7036,-0.7019,-0.7005,-0.6926,-0.6885,-0.6847,-0.685,-0.683,-0.6823,-0.6816,-0.6828,-0.683,-0.6831,-0.6835,-0.6837,-0.6812,-0.6812,-0.6811,-0.6811,0,-0.7359,-0.7326,-0.7316,-0.7255,-0.7226,-0.7202,-0.7147,-0.7125,-0.7094,-0.7056,-0.702,-0.6971,-0.6922,-0.6911,-0.688,-0.6869,-0.6862,-0.6839,-0.6815,-0.6839,-0.6841,-0.6842,-0.6816,-0.6815,-0.6814,-0.6814,0,0,-0.7413,-0.7327,-0.7324,-0.7296,-0.7232,-0.7206,-0.7179,-0.7133,-0.7115,-0.7073,-0.7049,-0.6998,-0.6977,-0.6947,-0.6912,-0.69,-0.6914,-0.6878,-0.6876,-0.6887,-0.69,-0.6917,-0.6919,-0.6893,-0.6893,-0.6893,-0.6904,0,-0.7425,-0.7375,-0.7329,-0.7296,-0.7265,-0.7217,-0.7194,-0.7153,-0.7118,-0.7087,-0.7049,-0.7014,-0.6988,-0.697,-0.6957,-0.6915,-0.6915,-0.6913,-0.687,-0.6869,-0.6885,-0.692,-0.6938,-0.6951,-0.6905,-0.6905,-0.6905,0,-0.7431,-0.7392,-0.7356,-0.7297,-0.7282,-0.7262,-0.7217,-0.7188,-0.7141,-0.7117,-0.7085,-0.7049,-0.7019,-0.7,-0.6959,-0.6959,-0.6939,-0.6917,-0.6916,-0.6909,-0.6888,-0.6914,-0.6954,-0.6956,-0.6906,-0.6906,-0.6906,0,-0.7475,-0.7413,-0.7384,-0.7362,-0.7292,-0.7279,-0.725,-0.7202,-0.7178,-0.7139,-0.7122,-0.708,-0.7057,-0.7026,-0.6979,-0.6969,-0.6944,-0.692,-0.6923,-0.6924,-0.6918,-0.6919,-0.6955,-0.6907,-0.6907,-0.6907,-0.6907,0,-0.7492,-0.7472,-0.7403,-0.7385,-0.7361,-0.731,-0.7288,-0.7254,-0.7213,-0.7188,-0.7144,-0.7122,-0.7062,-0.7033,-0.6997,-0.6969,-0.6959,-0.6939,-0.6929,-0.6942,-0.6945,-0.6927,-0.6925,-0.6908,-0.6908,-0.6907,-0.6907,0,-0.7536,-0.7489,-0.7454,-0.7392,-0.7376,-0.7361,-0.7308,-0.7289,-0.7253,-0.7222,-0.7212,-0.7155,-0.7119,-0.707,-0.7018,-0.6994,-0.6971,-0.6956,-0.6987,-0.6981,-0.6987,-0.6987,-0.7012,-0.7013,-0.6966,-0.6966,-0.6967,0,-0.755,-0.7534,-0.747,-0.7451,-0.7423,-0.7392,-0.7367,-0.7317,-0.7293,-0.724,-0.7228,-0.7188,-0.7154,-0.7098,-0.7052,-0.7013,-0.6997,-0.7008,-0.699,-0.7005,-0.6997,-0.6998,-0.6997,-0.7012,-0.7013,-0.7014,-0.7014,0,-0.7579,-0.7558,-0.7524,-0.7483,-0.7455,-0.742,-0.7383,-0.737,-0.7312,-0.7288,-0.7251,-0.7224,-0.7173,-0.7134,-0.7089,-0.7059,-0.7027,-0.7021,-0.7019,-0.7032,-0.705,-0.7041,-0.6999,-0.702,-0.7019,-0.7019,-0.7019,-0.7018,-0.7608,-0.7592,-0.7546,-0.751,-0.7478,-0.7445,-0.7425,-0.7387,-0.7355,-0.7309,-0.7282,-0.7246,-0.7201,-0.7138,-0.711,-0.7081,-0.7069,-0.7067,-0.7066,-0.7066,-0.7071,-0.7056,-0.7073,-0.7073,-0.7073,-0.7072,-0.7072,0,-0.7635,-0.7604,-0.7572,-0.7522,-0.7495,-0.7469,-0.7428,-0.7406,-0.7376,-0.7337,-0.7305,-0.7263,-0.7226,-0.7179,-0.7139,-0.7126,-0.711,-0.7117,-0.7117,-0.7111,-0.7084,-0.7089,-0.713,-0.713,-0.713,-0.713,-0.713,-0.713,-0.7646,-0.7618,-0.7591,-0.7547,-0.7515,-0.748,-0.7459,-0.7429,-0.7398,-0.7353,-0.7323,-0.7293,-0.7251,-0.7208,-0.7174,-0.7161,-0.7148,-0.7159,-0.7142,-0.7118,-0.7112,-0.7107,-0.7112,-0.7157,-0.7157,-0.7171,-0.7171,-0.7171]},{"header":{"parameterUnit":"m.s-1","parameterCategory":1,"la1":30.2991,"la2":30.254,"lo1":-89.0895,"lo2":-89.0444,"dy":0.0017,"dx":0.0017,"nx":28,"ny":28,"refTime":"2024-05-18T21:00:00:Z","depth":0,"parameterNumber":3,"parameterNumberName":"V-component_of_WINDS"},"data":[0,0,0,0,0,0,0,0,0,0,0,0,0,0,0,0,0,0,0,0,0,0,0,0,0,0,0,0,0,0,0,0,0,0,0,0,0,0,0,0,0,0,0,0,0,0,0,0,0,0,0,0,0,0,0,0,0,0,2.5402,2.5402,0,2.5395,2.5395,2.5395,2.5455,2.5457,2.5458,2.546,2.5447,2.5445,2.5443,0,0,0,0,0,0,0,0,0,0,0,0,0,2.5462,2.5461,2.5402,2.5402,2.5402,2.5395,2.5395,2.5395,2.5455,2.5457,2.5459,2.5461,2.5447,2.5445,2.5443,0,0,0,0,0,0,0,0,0,0,0,0,0,2.5443,2.546,2.5402,2.5431,2.5434,2.5395,2.5395,2.5395,2.5454,2.5457,2.5459,2.5462,2.5448,2.5445,2.5442,2.5374,0,0,2.5434,2.5432,0,0,0,0,0,0,0,0,2.5444,2.5441,2.5427,2.5429,2.5432,2.5429,2.5411,2.5388,2.5454,2.5446,2.546,2.5463,2.5438,2.5436,2.5429,2.5373,2.5373,2.5433,2.5432,2.543,2.543,0,0,0,0,0,0,0,2.5446,2.5442,2.5399,2.5427,2.543,2.5443,2.5443,2.5407,2.5428,2.5447,2.5451,2.545,2.544,2.5432,2.5429,2.5373,2.5433,2.5431,2.5429,2.5428,2.526,2.5257,0,0,0,0,0,0,2.5444,2.5442,2.5399,2.5399,2.5445,2.544,2.544,2.5427,2.5429,2.5431,2.5448,2.5453,2.5436,2.5433,2.5429,2.5349,2.543,2.5428,2.5426,2.5263,2.5259,2.5256,0,0,0,0,0,0,2.5445,2.5439,2.54,2.5422,2.5418,2.5436,2.5421,2.5425,2.5418,2.5429,2.5433,2.5436,2.5437,2.5433,2.5388,2.5349,2.5426,2.5424,2.5266,2.5262,2.5258,2.5187,0,0,0,0,0,0,2.5446,2.5439,2.5415,2.5421,2.5417,2.5359,2.5419,2.5423,2.5413,2.5419,2.5419,2.5421,2.5439,2.5392,2.5385,2.5346,2.5422,2.5269,2.5264,2.5259,2.5193,2.5181,2.5171,0,0,0,0,0,2.5448,2.5394,2.5413,2.5408,2.5386,2.5357,2.5354,2.5378,2.541,2.5384,2.5392,2.5421,2.5355,2.5386,2.5379,2.5339,2.5272,2.5265,2.5259,2.5198,2.5184,2.5171,0,0,0,0,0,0,2.538,2.5395,2.5417,2.5363,2.5359,2.5368,2.5336,2.5362,2.5346,2.5353,2.5381,2.538,2.5329,2.533,2.5365,2.5273,2.5319,2.5311,2.5274,2.5261,2.525,2.525,2.5419,0,0,0,0,0,2.536,2.5337,2.535,2.5301,2.5298,2.5317,2.5306,2.5324,2.532,2.5318,2.5322,2.5315,2.5293,2.5277,2.5257,2.5194,2.5194,2.5163,2.5152,2.5143,2.5135,2.5102,2.5088,2.5236,2.5236,2.5236,0,0,2.5315,2.5321,2.5304,2.5288,2.5287,2.526,2.5315,2.5285,2.5265,2.5312,2.527,2.5273,2.5267,2.5212,2.5188,2.5211,2.5095,2.5135,2.5128,2.5125,2.5094,2.508,2.5067,2.5232,2.5233,2.5233,0,0,2.5222,2.5224,2.5184,2.5182,2.518,2.5193,2.5184,2.5189,2.5193,2.5152,2.5186,2.5162,2.5123,2.5118,2.5109,2.5015,2.5041,2.5007,2.4949,2.4916,2.4904,2.4894,2.4859,2.4846,2.5,2.5,2.5,0,2.5166,2.513,2.5159,2.5127,2.5118,2.5162,2.512,2.5117,2.5107,2.5099,2.5126,2.5078,2.5077,2.5022,2.4999,2.4991,2.498,2.5007,2.4904,2.4894,2.4885,2.4851,2.4838,2.4996,2.4996,2.4996,2.4997,0,2.5062,2.5036,2.5003,2.4996,2.4983,2.4946,2.4968,2.4952,2.4972,2.4982,2.4938,2.4939,2.492,2.4909,2.4927,2.4855,2.487,2.4899,2.4945,2.4866,2.4835,2.4823,2.499,2.4991,2.4992,2.4993,0,0,2.4923,2.4933,2.4921,2.4918,2.492,2.4899,2.4864,2.4847,2.4832,2.4825,2.4795,2.4761,2.479,2.478,2.4798,2.4769,2.4693,2.4803,2.4803,2.4781,2.4613,2.4589,2.4574,2.4711,2.4709,2.4707,2.4613,0,2.4831,2.4773,2.4799,2.4737,2.4713,2.4755,2.4724,2.4721,2.4729,2.4709,2.4718,2.4693,2.4733,2.4727,2.4701,2.4708,2.4659,2.4715,2.4681,2.468,2.468,2.4558,2.4533,2.4444,2.4601,2.4599,2.4598,0,2.4715,2.4705,2.4642,2.4648,2.4639,2.4611,2.4598,2.4579,2.4575,2.4584,2.4574,2.4599,2.4563,2.461,2.456,2.4598,2.4586,2.4587,2.4584,2.4581,2.4633,2.455,2.4417,2.4403,2.4579,2.4581,2.4582,0,2.4619,2.459,2.4548,2.4544,2.4551,2.453,2.4532,2.4531,2.452,2.4508,2.45,2.4483,2.4474,2.4459,2.4478,2.4511,2.4425,2.4474,2.4429,2.4429,2.4408,2.4409,2.4269,2.4402,2.4402,2.4403,2.4403,0,2.4513,2.4472,2.4505,2.4479,2.4435,2.4464,2.4418,2.4424,2.4423,2.4398,2.4433,2.4408,2.4436,2.4413,2.4427,2.4383,2.4379,2.4383,2.4387,2.4379,2.4378,2.437,2.4376,2.4399,2.44,2.4401,2.4401,0,2.4397,2.4418,2.4375,2.4386,2.4387,2.4354,2.4362,2.4338,2.435,2.4317,2.4311,2.4328,2.4304,2.4322,2.4297,2.4306,2.4248,2.4261,2.425,2.4253,2.4206,2.421,2.4056,2.4036,2.4183,2.4182,2.418,0,2.4327,2.4297,2.4305,2.4292,2.4292,2.4269,2.4258,2.4286,2.4273,2.4267,2.4243,2.4222,2.4206,2.4164,2.4173,2.4154,2.4166,2.4114,2.4163,2.4156,2.4164,2.4165,2.4162,2.4103,2.4101,2.41,2.4099,0,2.42,2.4212,2.4196,2.4183,2.417,2.416,2.4154,2.414,2.4168,2.4151,2.4128,2.4115,2.4091,2.4069,2.4053,2.4053,2.4079,2.4083,2.4072,2.4062,2.4056,2.4058,2.4221,2.4086,2.4087,2.4088,2.4089,2.4089,2.4104,2.408,2.4082,2.4062,2.4061,2.4054,2.4032,2.4041,2.4023,2.4006,2.4023,2.3994,2.3991,2.3974,2.397,2.3946,2.3968,2.3951,2.3947,2.3942,2.3935,2.4062,2.3944,2.3944,2.3945,2.3945,2.3945,0,2.3978,2.3982,2.3964,2.3955,2.3939,2.3969,2.3963,2.3947,2.3922,2.3918,2.3903,2.3875,2.3854,2.3862,2.3843,2.3822,2.3834,2.3816,2.3817,2.3817,2.3917,2.3929,2.3807,2.3807,2.3807,2.3807,2.3807,2.3807,2.3911,2.387,2.3883,2.3841,2.3845,2.3818,2.3812,2.3806,2.3803,2.3771,2.3755,2.3761,2.3762,2.3743,2.3725,2.3728,2.3718,2.3695,2.3702,2.3796,2.3809,2.3822,2.3833,2.3694,2.3693,2.3604,2.3603,2.3602]}]]